Weather History for Bismarck, ND

Change the Weather History Date:

Thursday, February 27, 2014

  Actual Average Record
Temperature  
Mean Temperature 2 °F 22 °F  
Max Temperature 15 °F 32 °F 65 °F (1932)
Min Temperature -12 °F 13 °F -27 °F (1962)
Degree Days  
Heating Degree Days 63 43  
Month to date heating degree days 1483 1272  
Since 1 July heating degree days 6792 6390  
Cooling Degree Days 0 0  
Month to date cooling degree days 0 0  
Year to date cooling degree days 0 0  
Moisture  
Dew Point -6 °F    
Average Humidity 66    
Maximum Humidity 79    
Minimum Humidity 53    
Precipitation  
Precipitation 0.00 in 0.02 in 0.58 in (1958)
Month to date precipitation 0.19 0.48  
Year to date precipitation 0.57 0.91  
Snow  
Snow 0.00 in 0.40 in 5.60 in (1958)
Month to date snowfall 2.3 7.8  
Since 1 July snowfall 25.2 37.2  
Snow Depth T in    
Sea Level Pressure  
Sea Level Pressure 30.03 in    
Wind  
Wind Speed 9 mph (SE)    
Max Wind Speed 18 mph    
Max Gust Speed 22 mph    
Visibility 10 miles    
Events      
T = Trace of Precipitation, MM = Missing Value Source: NWS Daily Summary

Daily Weather History Graph

Daily Weather History Graph

Search for Another Location

Airport:

Trip Planner

Search our weather history database for the weather conditions in past years. The results will help you decide how hot, cold, wet, or windy it might be!

Date:

Astronomy

Feb. 27, 2014 Rise Set
Actual Time 7:26 AM CST 6:25 PM CST
Civil Twilight 6:55 AM CST 6:56 PM CST
Nautical Twilight 6:20 AM CST 7:31 PM CST
Astronomical Twilight 5:45 AM CST 8:06 PM CST
Moon 6:04 AM CST (2/27) 4:50 PM CST (2/27)
Length of Visible Light 12h 00m
Length of Day
10h 59m
Waning Crescent, 4% of the Moon is Illuminated
Feb 27
Waning Crescent
Mar 1
New
Mar 8
First Quarter
Mar 16
Full
Mar 23
Last Quarter

Hourly Weather History & Observations

Time (CST) Temp. Windchill Dew Point Humidity Pressure Visibility Wind Dir Wind Speed Gust Speed Precip Events Conditions
12:52 AM -0.0 °F -11.6 °F -9.0 °F 66% 30.19 in 10.0 mi North 5.8 mph - N/A   Clear
1:52 AM -2.0 °F -10.1 °F -11.0 °F 66% 30.19 in 10.0 mi North 3.5 mph - N/A   Clear
2:52 AM -6.0 °F - -11.9 °F 75% 30.19 in 10.0 mi Calm Calm - N/A   Clear
3:52 AM -7.1 °F -15.9 °F -13.0 °F 75% 30.19 in 10.0 mi WNW 3.5 mph - N/A   Clear
4:52 AM -9.0 °F -18.2 °F -15.0 °F 75% 30.20 in 10.0 mi East 3.5 mph - N/A   Clear
5:52 AM -9.9 °F -21.5 °F -16.1 °F 74% 30.20 in 10.0 mi NNE 4.6 mph - N/A   Clear
6:52 AM -11.9 °F -25.7 °F -17.0 °F 78% 30.20 in 10.0 mi East 5.8 mph - N/A   Clear
7:52 AM -11.9 °F -27.3 °F -17.0 °F 78% 30.19 in 10.0 mi ENE 6.9 mph - N/A   Clear
8:52 AM -7.1 °F -18.1 °F -13.0 °F 75% 30.17 in 10.0 mi East 4.6 mph - N/A   Clear
9:52 AM -0.0 °F -16.3 °F -7.1 °F 72% 30.15 in 10.0 mi SSE 10.4 mph - N/A   Partly Cloudy
10:52 AM 3.9 °F -10.4 °F -6.0 °F 64% 30.12 in 10.0 mi South 9.2 mph - N/A   Clear
11:52 AM 7.0 °F -8.3 °F -5.1 °F 58% 30.09 in 10.0 mi South 11.5 mph - N/A   Clear
12:52 PM 10.0 °F -5.2 °F -2.9 °F 56% 30.04 in 10.0 mi South 12.7 mph - N/A   Clear
1:52 PM 12.0 °F -2.7 °F -2.0 °F 53% 29.99 in 10.0 mi SSE 12.7 mph - N/A   Clear
2:52 PM 14.0 °F -0.2 °F -0.0 °F 54% 29.96 in 10.0 mi South 12.7 mph - N/A   Clear
3:52 PM 14.0 °F -1.4 °F -0.9 °F 52% 29.93 in 10.0 mi South 15.0 mph - N/A   Clear
4:52 PM 14.0 °F -3.0 °F -0.0 °F 54% 29.91 in 10.0 mi South 18.4 mph - N/A   Clear
5:52 PM 12.9 °F -2.8 °F 1.0 °F 59% 29.89 in 10.0 mi SSE 15.0 mph - N/A   Clear
6:52 PM 10.0 °F -2.9 °F -0.0 °F 64% 29.89 in 10.0 mi SSE 9.2 mph - N/A   Clear
7:52 PM 7.0 °F -7.5 °F -0.9 °F 70% 29.88 in 10.0 mi SSE 10.4 mph - N/A   Clear
8:52 PM 7.0 °F -7.5 °F -0.9 °F 70% 29.86 in 10.0 mi SSE 10.4 mph - N/A   Clear
9:52 PM 6.1 °F -9.5 °F -0.9 °F 73% 29.82 in 10.0 mi SSE 11.5 mph - N/A   Clear
10:52 PM 6.1 °F -9.5 °F -2.0 °F 69% 29.80 in 10.0 mi SSE 11.5 mph - N/A   Clear
11:52 PM 3.9 °F -10.4 °F -2.0 °F 76% 29.78 in 10.0 mi SSE 9.2 mph - N/A   Clear